Miscellaneous Local Product
Issued by NWS Hastings, NE

Home | Current Version | Previous Version | Text Only | Print | Product List | Glossary On
Versions: 1 2 3 4 5 6 7 8 9 10 11 12 13 14 15 16 17 18 19 20 21 22 23 24 25 26 27 28 29 30 31 32 33 34 35 36 37 38 39 40 41 42 43 44 45 46 47 48 49 50
987
AXUS43 KGID 010802
MISGRI

GID CWA HOURLY WEATHER ROUNDUP
NATIONAL WEATHER SERVICE HASTINGS NE
300 AM CDT SUN MAY 01 2016

NOTE: "FAIR" INDICATES FEW OR NO CLOUDS BELOW 12,000 FEET WITH NO
SIGNIFICANT WEATHER AND/OR OBSTRUCTIONS TO VISIBILITY.

...SOUTH CENTRAL NEBRASKA...

CITY           SKY/WX    TMP DP  RH WIND       PRES   REMARKS
GRAND ISLAND   LGT RAIN  42  41  96 N20G28    29.94S FOG
HASTINGS       LGT RAIN  43  41  93 N17       29.92R
KEARNEY        CLOUDY    41  39  93 N16       29.96R
ORD            LGT RAIN  41  38  89 NE20      30.00R
YORK           CLOUDY    45  45 100 NE17      29.90S
AURORA         CLOUDY    44  44  99 NE17G24   29.92R
LEXINGTON      LGT RAIN  39  37  89 N18       30.00R WCI  30
HOLDREGE       DRIZZLE   41  40  96 N17       29.96R
HEBRON         CLOUDY    47  46  97 W6        29.88S FOG

...NEBRASKA PANHANDLE...

CITY           SKY/WX    TMP DP  RH WIND       PRES   REMARKS
CHADRON        PTCLDY    39  34  82 W3        30.22R
ALLIANCE       FLURRIES  33  32  96 N13       30.18S WCI  24
SCOTTSBLUFF    CLOUDY    37  34  89 NW7       30.22S WCI  32
SIDNEY         LGT SNOW  33  32  96 N20       30.16R FOG     WCI  21

...WESTERN AND NORTH CENTRAL NEBRASKA...

CITY           SKY/WX    TMP DP  RH WIND       PRES   REMARKS
VALENTINE      CLOUDY    40  37  89 N10       30.15S WCI  33
AINSWORTH      LGT RAIN  40  39  97 N10       30.12R WCI  33
ONEILL         LGT RAIN  42  40  93 NE16G26   30.07R
BROKEN BOW     LGT RAIN  39  37  92 N17G24    30.02R WCI  30
IMPERIAL       MIX PCPN  34  33  96 N20       30.08S FOG     WCI  23
NORTH PLATTE   CLOUDY    34  33  96 N15       30.06R WCI  24
MCCOOK         CLOUDY    37  34  89 N18       30.01R WCI  27

...EASTERN NEBRASKA...

CITY           SKY/WX    TMP DP  RH WIND       PRES   REMARKS
NORFOLK        LGT RAIN  42  39  89 NE14      29.99R
SO SIOUX CITY  LGT RAIN  44  40  85 NE14      30.01S
TEKAMAH        LGT RAIN  45  43  93 NE17      29.96R
COLUMBUS       CLOUDY    43  36  75 NE15G25   29.95S
ALBION         LGT RAIN  41  39  94 NE16G24   29.99S
OMAHA EPPLEY   LGT RAIN  47  44  90 NE9       29.92S
OFFUTT AFB     CLOUDY    47  47  99 NE9       29.90S
MILLARD        DRIZZLE   47  46  94 NE3       29.91S
LINCOLN        CLOUDY    49  46  90 NE16      29.90R
NEBRASKA CITY  CLOUDY    51  51 100 NE7       29.88S FOG
BEATRICE       PTCLDY    47  46  95 CALM      29.88S
FALLS CITY     CLOUDY    51  48  89 W5        29.87S

...NORTHERN KANSAS...

CITY           SKY/WX    TMP DP  RH WIND       PRES   REMARKS
GOODLAND       CLOUDY    35  33  92 N25G32    30.05R WCI  23
HILL CITY      CLOUDY    40  38  93 NW13      29.98R WCI  32
NORTON         CLOUDY    39  36  87 NW15G24   29.96R WCI  31
PHILLIPSBURG   CLOUDY    43  43 100 CALM      29.95S
SMITH CENTER   CLOUDY    39  39 100 NW9       29.93R WCI  33
BELOIT         CLOUDY    41  39  93 SW9       29.93R
HAYS           CLOUDY    43  30  61 NW16      29.97S
RUSSELL        CLOUDY    43  38  82 NW13      29.95S
CONCORDIA      CLOUDY    46  42  86 W8        29.91S
SALINA         MOCLDY    46  42  86 W12       29.94S
TOPEKA         PTCLDY    50  45  83 SW5       29.90S



USA.gov is the U.S. government's official web portal to all federal, state and local government web resources and services.